Location: Boiro
(42.6475°N, 8.8834°W)
Time: 09:20:13
(UTC+01:00)

Transit 2A - Pass Details

Date: 06 December 2021
Orbit: 592 x 966 km, 66.7° (Epoch: 28 January)

Event Time Altitude Azimuth Distance (km) Brightness Sun altitude
Exits shadow 07:12:23 - 343° (NNW) 3,260 8.9 -17.5°
Reaches altitude 10° 07:15:40 10° 7° (N) 2,713 8.7 -17.0°
Maximum altitude 07:17:38 11° 25° (NNE) 2,609 8.9 -16.6°
Drops below altitude 10° 07:19:37 10° 43° (NE) 2,705 9.2 -16.3°
Sets 07:24:26 0° 76° (ENE) 3,612 10.6 -15.4°
